Location: Dattensoll
(49.9928°N, 9.8954°E)
Time: 20:37:03
(UTC+00:00)

USA 234 - Pass Details

Date: 19 May 2025
Orbit: 1097 x 1111 km, 123.0° (Epoch: 19 June)

Event Time Altitude Azimuth Distance (km) Brightness Sun altitude
Rises 22:30:29 0° 65° (ENE) 3,920 6.3 -19.3°
Reaches altitude 10° 22:33:00 10° 61° (ENE) 2,964 5.7 -19.4°
Maximum altitude 22:39:21 56° 346° (NNW) 1,302 4.0 -19.5°
Drops below altitude 10° 22:45:42 10° 270° (W) 2,969 5.6 -19.7°
Sets 22:48:14 0° 267° (W) 3,928 6.2 -19.7°
